Weather reports worldwide

Advertisment
Aberdeen/Dyce, United Kingdom (3091): temperature & dewpoint: 22.02.2017 14:00:00 - 28.02.2017 14:00:00 (GMT)Aberdeen/Dyce, United Kingdom (3091): temperature -20cm & temperature -100cm: 22.02.2017 14:00:00 - 28.02.2017 14:00:00 (GMT)Aberdeen/Dyce, United Kingdom (3091): wind speed & gusts: 22.02.2017 14:00:00 - 28.02.2017 14:00:00 (GMT)Aberdeen/Dyce, United Kingdom (3091): wind direction: 22.02.2017 14:00:00 - 28.02.2017 14:00:00 (GMT)Aberdeen/Dyce, United Kingdom (3091): reduced air pressure: 22.02.2017 14:00:00 - 28.02.2017 14:00:00 (GMT)Aberdeen/Dyce, United Kingdom (3091): visibility: 22.02.2017 14:00:00 - 28.02.2017 14:00:00 (GMT)Aberdeen/Dyce, United Kingdom (3091): sunshine duration: 22.02.2017 14:00:00 - 28.02.2017 14:00:00 (GMT)Aberdeen/Dyce, United Kingdom (3091): precipitation: 22.02.2017 14:00:00 - 28.02.2017 14:00:00 (GMT)
Date & Time tt [°C] td [°C] tt -20cm [°C] tt -100cm [°C] ff [km/h] ff [kn] fx [km/h] fx [kn] dd ppp [hPa] vv [km] sd [min] rr [mm]
28.02.2017 14:00:00 6,5 1,0 - - 28 15 50 27 NW 981,4 10 54 0,0
28.02.2017 13:00:00 6,0 1,6 - - 29 16 46 25 NW 980,9 10 42 0,2
28.02.2017 12:00:00 4,8 2,6 - - 29 16 48 26 NW 980,7 10 48 0,0
28.02.2017 11:00:00 4,9 -0,3 - - 28 15 46 25 NW 980,0 10 60 0,0
28.02.2017 10:00:00 3,9 -1,1 - - 22 12 - - NW 979,8 10 60 0,0
28.02.2017 09:00:00 2,3 -2,3 4,7 5,7 21 11 - - WNW 979,3 10 36 0,0
28.02.2017 08:00:00 1,2 -3,0 - - 18 10 - - WNW 978,7 10 0 0,0
28.02.2017 07:00:00 0,9 -3,4 - - 18 10 - - NW 978,2 50 0 0,0
28.02.2017 06:00:00 0,7 -3,3 - - 13 7 - - WNW 977,8 10 0 0,0
28.02.2017 05:00:00 0,5 -3,2 - - 15 8 - - WNW 977,5 10 0 0,0
28.02.2017 04:00:00 1,0 -3,2 - - 11 6 - - WNW 977,3 10 0 0,0
28.02.2017 03:00:00 1,1 -3,3 - - 15 8 - - WNW 977,4 10 0 0,0
28.02.2017 02:00:00 1,2 -3,2 - - 13 7 - - WNW 977,5 10 0 0,0
28.02.2017 01:00:00 1,5 -2,8 - - 13 7 - - WNW 977,9 10 0 0,0
28.02.2017 00:00:00 1,6 -2,9 - - 13 7 - - WNW 978,1 10 - 0,0
27.02.2017 23:00:00 1,5 -3,0 - - 18 10 - - WNW 978,5 10 0 0,0
27.02.2017 22:00:00 1,4 -3,1 - - 15 8 - - NNW 979,2 50 0 0,0
27.02.2017 21:00:00 1,4 -2,3 - - 13 7 - - NW 979,4 10 0 0,0
27.02.2017 20:00:00 0,9 -2,1 - - 8 4 - - W 979,7 10 0 0,0
27.02.2017 19:00:00 1,8 -1,9 - - 4 2 - - - 980,0 10 0 0,0
27.02.2017 18:00:00 3,3 -1,4 - - 4 2 - - W 980,2 10 0 0,0
27.02.2017 17:00:00 5,2 -3,4 - - 2 1 - - - 980,3 10 60 0,0
27.02.2017 16:00:00 6,2 -3,0 - - 8 4 - - SW 980,8 10 60 0,0
27.02.2017 15:00:00 6,2 -2,5 - - 11 6 - - SW 981,5 10 60 0,0
27.02.2017 14:00:00 5,9 -2,4 - - 13 7 - - SW 982,1 10 54 0,0
27.02.2017 13:00:00 5,5 -1,3 - - 15 8 - - S 983,1 35 60 0,0
27.02.2017 12:00:00 5,6 -0,9 - - 21 11 - - S 983,6 10 60 0,0
27.02.2017 11:00:00 5,0 -1,2 - - 18 10 - - SSW 984,0 40 60 0,0
27.02.2017 10:00:00 4,2 -0,2 - - 18 10 - - S 984,6 10 60 0,0
27.02.2017 09:00:00 3,0 -0,7 5,0 5,7 11 6 - - SW 984,6 10 60 0,0
27.02.2017 08:00:00 1,9 -0,8 - - 9 5 - - SSW 984,9 45 12 0,0
27.02.2017 07:00:00 2,3 -0,4 - - 18 10 - - SSW 984,6 10 0 0,0
27.02.2017 06:00:00 2,3 -0,4 - - 21 11 - - SSW 984,8 10 0 0,0
27.02.2017 05:00:00 2,4 -0,4 - - 24 13 46 25 SSW 984,7 10 0 0,0
27.02.2017 04:00:00 3,1 -0,7 - - 21 11 - - SSW 984,8 10 0 0,0
27.02.2017 03:00:00 3,4 -1,3 - - 21 11 - - SSW 985,1 10 0 0,0
27.02.2017 02:00:00 3,5 -1,4 - - 31 17 52 28 SW 985,5 50 0 0,0
27.02.2017 01:00:00 3,6 -0,6 - - 31 17 59 32 SW 985,1 50 0 0,0
27.02.2017 00:00:00 4,2 0,2 - - 31 17 54 29 SSW 984,7 10 - 0,0
26.02.2017 23:00:00 4,6 0,3 - - 26 14 52 28 SW 984,2 10 0 0,0
26.02.2017 22:00:00 4,9 0,1 - - 21 11 - - SW 984,1 10 0 0,0
26.02.2017 21:00:00 5,2 1,1 - - 18 10 - - SW 983,2 10 0 0,0
26.02.2017 20:00:00 6,6 1,6 - - 22 12 50 27 WSW 982,3 10 0 0,0
26.02.2017 19:00:00 7,2 3,7 - - 29 16 - - SW 981,0 50 0 0,0
26.02.2017 18:00:00 7,8 5,1 - - 28 15 67 36 SSW 980,0 10 0 0,0
26.02.2017 17:00:00 8,3 7,1 - - 39 21 63 34 S 979,0 8 0 0,4
26.02.2017 16:00:00 7,5 7,1 - - 26 14 - - S 981,8 7 0 3,0
26.02.2017 15:00:00 7,4 6,7 - - 22 12 - - SSE 984,7 3,2 0 1,8
26.02.2017 14:00:00 9,4 5,4 - - 18 10 - - S 986,6 10 0 0,0
26.02.2017 13:00:00 9,0 4,8 - - 22 12 - - SW 987,6 10 0 0,0
26.02.2017 12:00:00 7,9 4,7 - - 16 9 46 25 S 988,9 10 0 0,0
26.02.2017 11:00:00 6,9 4,0 - - 26 14 57 31 S 990,1 10 18 0,0
26.02.2017 10:00:00 6,5 3,6 - - 26 14 - - S 990,8 10 24 0,0
26.02.2017 09:00:00 5,6 2,9 5,0 5,7 16 9 48 26 S 992,5 10 0 0,0
26.02.2017 08:00:00 5,1 2,5 - - 16 9 - - SSW 992,9 10 0 0,0
26.02.2017 07:00:00 4,5 2,4 - - 11 6 - - S 993,1 10 0 0,0
26.02.2017 06:00:00 2,8 0,5 - - 11 6 - - SSE 994,2 10 0 0,0
26.02.2017 05:00:00 4,2 1,0 - - 13 7 - - SSW 994,9 10 0 0,0
26.02.2017 04:00:00 3,8 0,4 - - 4 2 - - - 995,7 10 0 0,0
26.02.2017 03:00:00 4,1 1,0 - - 8 4 - - SW 996,7 10 0 0,0
26.02.2017 02:00:00 3,3 1,5 - - 4 2 - - W 997,2 10 0 0,0
26.02.2017 01:00:00 3,3 0,8 - - 5 3 - - NNE 998,3 22 0 0,0
26.02.2017 00:00:00 4,3 1,5 - - 9 5 - - SW 998,1 10 - 0,0
25.02.2017 23:00:00 3,5 1,2 - - 5 3 - - - 998,2 10 0 0,0
25.02.2017 22:00:00 2,6 0,4 - - 4 2 - - - 998,6 10 0 0,0
25.02.2017 21:00:00 3,8 0,6 - - 4 2 - - - 998,4 10 0 0,0
25.02.2017 20:00:00 5,3 1,2 - - 9 5 - - SW 998,5 10 0 0,0
25.02.2017 19:00:00 5,5 2,7 - - 8 4 - - SW 998,0 10 0 0,0
25.02.2017 18:00:00 7,2 2,6 - - 5 3 - - - 997,5 10 0 0,0
25.02.2017 17:00:00 8,8 3,3 - - 16 9 - - NW 996,5 10 36 0,0
25.02.2017 16:00:00 9,8 4,9 - - 21 11 - - NNW 995,5 10 36 0,0
25.02.2017 15:00:00 10,2 5,6 - - 18 10 - - NNW 994,6 30 30 0,0
25.02.2017 14:00:00 11,6 7,0 - - 18 10 - - NW 993,5 10 18 0,2
25.02.2017 13:00:00 13,1 6,3 - - 22 12 48 26 W 992,0 10 48 0,0
25.02.2017 12:00:00 12,3 6,8 - - 29 16 55 30 WSW 991,2 50 60 0,0
25.02.2017 11:00:00 10,7 6,4 - - 31 17 63 34 SW 991,0 10 48 0,0
25.02.2017 10:00:00 9,7 5,7 - - 22 12 55 30 SW 991,1 10 6 0,0
25.02.2017 09:00:00 9,0 5,6 4,7 5,7 31 17 68 37 SSW 991,3 10 0 0,0
25.02.2017 08:00:00 8,7 5,5 - - 31 17 63 34 SSW 991,4 10 0 0,0
25.02.2017 07:00:00 8,3 5,4 - - 34 18 63 34 SSW 992,0 10 0 0,0
25.02.2017 06:00:00 7,8 5,5 - - 29 16 74 40 SSW 992,8 10 0 0,0
25.02.2017 05:00:00 7,1 5,6 - - 48 26 65 35 SSW 994,4 27 0 0,0
25.02.2017 04:00:00 6,8 5,3 - - 39 21 59 32 SSW 996,7 50 0 0,0
25.02.2017 03:00:00 6,0 4,7 - - 31 17 - - S 998,0 50 0 0,0
25.02.2017 02:00:00 5,2 3,8 - - 22 12 46 25 S 1000,1 10 0 0,0
25.02.2017 01:00:00 5,0 3,3 - - 26 14 - - S 1001,2 10 0 0,0
25.02.2017 00:00:00 4,2 2,7 - - 21 11 54 29 S 1002,8 10 - 0,0
24.02.2017 23:00:00 3,8 2,5 - - 29 16 54 29 SSW 1002,9 10 0 0,0
24.02.2017 22:00:00 3,4 2,4 - - 29 16 54 29 S 1004,7 10 0 0,8
24.02.2017 21:00:00 2,9 1,9 - - 24 13 46 25 S 1006,6 7 0 1,0
24.02.2017 20:00:00 2,8 1,7 - - 22 12 - - S 1008,2 6 0 0,8
24.02.2017 19:00:00 3,5 1,3 - - 21 11 - - SSW 1009,0 15 0 0,0
24.02.2017 18:00:00 4,1 0,7 - - 15 8 - - SSW 1010,0 10 0 0,0
24.02.2017 17:00:00 4,4 0,4 - - 8 4 - - S 1010,4 10 0 0,0
24.02.2017 16:00:00 4,9 0,4 - - 11 6 - - SSW 1011,0 10 0 0,0
24.02.2017 15:00:00 5,1 0,2 - - 13 7 - - SSW 1011,3 10 0 0,0
24.02.2017 14:00:00 5,4 -0,3 - - 15 8 - - SSW 1011,7 10 60 0,0
24.02.2017 13:00:00 5,4 -1,5 - - 11 6 - - SW 1011,9 10 60 0,0
24.02.2017 12:00:00 5,1 -1,6 - - 11 6 - - SW 1012,2 10 60 0,0
24.02.2017 11:00:00 4,5 -1,7 - - 9 5 - - WSW 1012,3 50 60 0,0
24.02.2017 10:00:00 3,2 -1,5 - - 8 4 - - W 1012,2 10 60 0,0
24.02.2017 09:00:00 -0,2 -1,9 4,7 5,9 4 2 - - - 1011,3 10 60 0,0
24.02.2017 08:00:00 -0,6 -2,5 - - 4 2 - - NE 1010,7 40 6 0,0
24.02.2017 07:00:00 0,9 -1,7 - - 9 5 - - W 1010,1 10 0 0,0
24.02.2017 06:00:00 1,2 -1,4 - - 11 6 - - WNW 1009,1 10 0 0,0
24.02.2017 05:00:00 -0,7 -2,9 - - 4 2 - - NE 1008,0 45 0 0,0
24.02.2017 04:00:00 1,4 -1,1 - - 5 3 - - - 1007,1 10 0 0,0
24.02.2017 03:00:00 -0,1 -1,6 - - 2 1 - - WSW 1006,1 10 0 0,0
24.02.2017 02:00:00 2,0 -1,7 - - 2 1 - - - 1005,0 10 0 0,0
24.02.2017 01:00:00 2,1 -2,0 - - 13 7 - - NW 1004,1 40 0 0,0
24.02.2017 00:00:00 1,8 -1,9 - - 11 6 - - WNW 1003,4 40 - 0,0
23.02.2017 23:00:00 1,8 -1,7 - - 9 5 - - W 1002,3 10 0 0,0
23.02.2017 22:00:00 1,6 -1,5 - - 9 5 - - WNW 1001,4 10 0 0,0
23.02.2017 21:00:00 2,3 -1,0 - - 9 5 - - - 1000,3 10 0 0,0
23.02.2017 20:00:00 2,3 -1,0 - - 9 5 - - WNW 999,3 10 0 0,0
23.02.2017 19:00:00 2,9 -0,7 - - 15 8 - - WNW 998,1 10 0 0,0
23.02.2017 18:00:00 3,1 -0,1 - - 13 7 - - NW 997,1 40 0 0,0
23.02.2017 17:00:00 3,5 0,5 - - 21 11 - - N 995,6 10 0 0,0
23.02.2017 16:00:00 4,3 0,0 - - 16 9 - - NNW 994,1 35 0 0,0
23.02.2017 15:00:00 4,3 0,7 - - 18 10 - - N 992,7 10 0 0,0
23.02.2017 14:00:00 3,9 2,2 - - 18 10 - - N 991,5 10 0 0,2
23.02.2017 13:00:00 3,8 2,3 - - 18 10 - - NNE 990,3 25 0 0,6
23.02.2017 12:00:00 3,7 2,7 - - 22 12 - - NE 989,0 6 0 1,8
23.02.2017 11:00:00 2,4 2,0 - - 22 12 - - NE 987,9 7 0 1,6
23.02.2017 10:00:00 1,0 0,5 - - 16 9 - - NNE 987,3 3,0 0 2,6
23.02.2017 09:00:00 1,6 1,2 5,2 5,7 11 6 - - NE 987,1 7 0 2,4
23.02.2017 08:00:00 2,3 1,9 - - 11 6 - - E 987,1 6 0 1,6
23.02.2017 07:00:00 2,2 1,7 - - 13 7 - - SE 987,7 7 0 1,6
23.02.2017 06:00:00 3,2 2,0 - - 13 7 - - E 988,7 7 0 1,2
23.02.2017 05:00:00 2,2 -0,1 - - 0 0 - - N 990,1 8 0 0,0
23.02.2017 04:00:00 1,5 -0,7 - - 2 1 - - N 991,3 40 0 0,0
23.02.2017 03:00:00 1,8 -0,8 - - 4 2 - - NNW 992,9 10 0 0,0
23.02.2017 02:00:00 1,9 -1,0 - - 0 0 - - N 994,2 10 0 0,0
23.02.2017 01:00:00 3,0 -0,7 - - 8 4 - - WSW 995,5 10 0 0,0
23.02.2017 00:00:00 2,3 -0,9 - - 5 3 - - - 996,4 10 - 0,0
22.02.2017 23:00:00 3,2 -1,2 - - 9 5 - - SSW 997,0 10 0 0,0
22.02.2017 22:00:00 4,6 -0,7 - - 11 6 - - NW 997,1 10 0 0,0
22.02.2017 21:00:00 3,9 -0,7 - - 9 5 - - SW 997,5 10 0 0,0
22.02.2017 20:00:00 4,6 -0,4 - - 18 10 46 25 WNW 996,7 10 0 0,0
22.02.2017 19:00:00 5,0 -0,5 - - 28 15 48 26 WNW 996,5 10 0 0,0
22.02.2017 18:00:00 5,3 0,3 - - 34 18 55 30 WNW 995,8 10 0 0,0
22.02.2017 17:00:00 5,8 0,7 - - 31 17 67 36 WNW 995,2 10 30 0,0
22.02.2017 16:00:00 7,3 0,0 - - 34 18 74 40 WNW 994,6 10 54 0,0
22.02.2017 15:00:00 7,9 -1,0 - - 35 19 72 39 WNW 993,3 10 60 0,0
22.02.2017 14:00:00 8,5 -0,6 - - 39 21 72 39 WNW 992,8 10 60 0,0

tt = temperature
td = dewpoint
tt -20cm = temperature -20cm
tt -100cm = temperature -100cm
ff = wind speed
fx = gusts
dd = wind direction
ppp = reduced air pressure
vv = visibility
sd = sunshine duration
rr = precipitation

Next stations